Change the Weather History Date:

Saturday, May 18, 2013

  Actual Average Record
Temperature  
Mean Temperature 78 °F -  
Max Temperature 84 °F 77 °F 84 °F (2013)
Min Temperature 73 °F 69 °F 69 °F (2004)
Cooling Degree Days 14    
Growing Degree Days 28 (Base 50)    
Moisture  
Dew Point 69 °F    
Average Humidity 70    
Maximum Humidity 83    
Minimum Humidity 60    
Precipitation  
Precipitation 0.00 in - - ()
Sea Level Pressure  
Sea Level Pressure 30.02 in    
Wind  
Wind Speed 6 mph (ENE)    
Max Wind Speed 10 mph    
Max Gust Speed -    
Visibility 9 miles    
Events Rain    
Averages and records for this station are not official NWS values.
T = Trace of Precipitation, MM = Missing Value Source: NWS Daily Summary

Daily Weather History Graph

Daily Weather History Graph

Search for Another Location

Airport or City:

Trip Planner

Search our weather history database for the weather conditions in past years. The results will help you decide how hot, cold, wet, or windy it might be!

Date:

Astronomy

May. 18, 2013 Rise Set
Actual Time 5:51 AM HST 7:03 PM HST
Civil Twilight 5:27 AM HST 7:28 PM HST
Nautical Twilight 4:58 AM HST 7:56 PM HST
Astronomical Twilight 4:29 AM HST 8:26 PM HST
Moon 1:05 PM HST (5/18) 12:59 AM HST (5/18)
Length of Visible Light 14h 00m
Length of Day
13h 12m
First Quarter, 57% of the Moon is Illuminated
May 18
First Quarter
May 24
Full
May 31
Last Quarter
Jun 8
New
Jun 16
First Quarter

Hourly Weather History & Observations

Time (HST) Temp. Heat Index Dew Point Humidity Pressure Visibility Wind Dir Wind Speed Gust Speed Precip Events Conditions
12:57 AM 75.9 °F - 66.9 °F 74% 30.02 in 10.0 mi ENE 5.8 mph - N/A   Partly Cloudy
1:57 AM 75.9 °F - 66.9 °F 74% 30.00 in 10.0 mi Variable 4.6 mph - N/A   Partly Cloudy
2:57 AM 73.6 °F - 66.9 °F 80% 29.99 in 10.0 mi East 6.9 mph - 0.00 in   Scattered Clouds
3:57 AM 75.0 °F - 68.0 °F 79% 29.98 in 10.0 mi East 5.8 mph - N/A   Scattered Clouds
4:57 AM 75.0 °F - 68.0 °F 79% 29.98 in 10.0 mi East 4.6 mph - N/A   Partly Cloudy
5:57 AM 75.0 °F - 69.1 °F 82% 30.00 in 10.0 mi ESE 3.5 mph - N/A   Partly Cloudy
6:57 AM 75.9 °F - 68.0 °F 76% 30.02 in 10.0 mi Variable 4.6 mph - N/A   Mostly Cloudy
7:57 AM 77.2 °F - 69.1 °F 76% 30.04 in 10.0 mi ESE 8.1 mph - N/A   Scattered Clouds
8:13 AM 77.0 °F - 69.8 °F 78% 30.05 in 6.2 mi Variable 5.8 mph - N/A   Mostly Cloudy
8:24 AM 77.0 °F - 69.8 °F 78% 30.05 in 6.2 mi ENE 5.8 mph - N/A   Scattered Clouds
8:57 AM 77.0 °F - 69.1 °F 76% 30.05 in 10.0 mi Variable 5.8 mph - N/A   Scattered Clouds
9:04 AM 84.2 °F 88.4 °F 69.8 °F 62% 30.06 in 6.2 mi ENE 5.8 mph - N/A   Mostly Cloudy
9:16 AM 84.2 °F 88.4 °F 69.8 °F 62% 30.06 in 6.2 mi NE 5.8 mph - N/A   Scattered Clouds
9:26 AM 84.2 °F 88.4 °F 69.8 °F 62% 30.06 in 6.2 mi NE 6.9 mph - N/A   Mostly Cloudy
9:57 AM 84.2 °F 87.9 °F 69.1 °F 60% 30.05 in 10.0 mi NE 6.9 mph - N/A   Mostly Cloudy
10:04 AM 84.2 °F 88.4 °F 69.8 °F 62% 30.07 in 6.2 mi NE 6.9 mph - N/A   Scattered Clouds
10:57 AM 84.2 °F 88.4 °F 70.0 °F 62% 30.05 in 10.0 mi NE 8.1 mph - N/A   Scattered Clouds
11:57 AM 84.2 °F 88.4 °F 70.0 °F 62% 30.04 in 10.0 mi NE 8.1 mph - N/A   Scattered Clouds
12:57 PM 82.4 °F 85.8 °F 69.1 °F 64% 30.02 in 10.0 mi NE 10.4 mph - N/A   Clear
1:57 PM 82.4 °F 85.8 °F 69.1 °F 64% 30.00 in 10.0 mi NE 6.9 mph - N/A   Scattered Clouds
2:57 PM 82.4 °F 86.7 °F 71.1 °F 68% 29.99 in 10.0 mi ENE 6.9 mph - N/A   Scattered Clouds
3:57 PM 83.3 °F 87.4 °F 70.0 °F 64% 29.97 in 10.0 mi NE 8.1 mph - N/A   Clear
4:57 PM 84.2 °F 87.9 °F 69.1 °F 60% 29.97 in 10.0 mi Variable 3.5 mph - N/A   Partly Cloudy
5:57 PM 84.2 °F 87.9 °F 69.1 °F 60% 29.97 in 10.0 mi NE 5.8 mph - N/A   Clear
6:57 PM 78.8 °F - 68.0 °F 69% 29.99 in 10.0 mi ENE 4.6 mph - N/A   Clear
7:19 PM - - - N/A% - - North - - N/A   Unknown
7:57 PM 78.8 °F - 66.9 °F 67% 30.01 in 10.0 mi ENE 3.5 mph - N/A   Partly Cloudy
8:57 PM 77.0 °F - 68.0 °F 74% 30.02 in 10.0 mi NE 3.5 mph - N/A   Clear
9:57 PM 75.2 °F - 68.0 °F 78% 30.04 in 10.0 mi NNE 5.8 mph - N/A   Partly Cloudy
10:00 PM - - - N/A% - - North - - N/A   Unknown
10:57 PM 73.4 °F - 68.0 °F 83% 30.03 in 10.0 mi NE 9.2 mph - 0.00 in Rain Light Rain
11:57 PM 73.4 °F - 66.9 °F 80% 30.02 in 10.0 mi Calm Calm - 0.00 in   Partly Cloudy